When you browse on this site, cookies collect data to enhance your experience and personalize the content and advertising you see.
Visit our Privacy Policy to learn more. By continuing to use the site, you agree to this use of cookies and data.
  • en Suisse
  • Liste des pays
  • À 7 jours
  • Température de l'eau
  • Carte météo
  • Widgets météo
  • user-avatar
    Se connecter

    Météo par heure à Dzhonsboro

    Ce jour, 16 Décembre, Lundi

    Heure Température Précipitation Vent Pression Humidité
    00:00 +3°C° 0 mm 3 m/s 751 mmHg 81%
    01:00 +3°C° 0 mm 4 m/s 751 mmHg 81%
    02:00 +1°C° 0 mm 4 m/s 752 mmHg 81%
    03:00 +1°C° 0 mm 4 m/s 752 mmHg 82%
    04:00 +1°C° 0.1 mm 4 m/s 752 mmHg 82%
    05:00 +1°C° 0.1 mm 4 m/s 752 mmHg 83%
    06:00 +1°C° 0.1 mm 4 m/s 753 mmHg 83%
    07:00 +1°C° 0.1 mm 4 m/s 752 mmHg 84%
    08:00 0°C° 0.1 mm 4 m/s 752 mmHg 86%
    09:00 0°C° 0.1 mm 4 m/s 752 mmHg 87%
    10:00 +1°C° 0.3 mm 4 m/s 752 mmHg 88%
    11:00 +1°C° 0.3 mm 5 m/s 751 mmHg 89%
    12:00 +1°C° 0.3 mm 5 m/s 751 mmHg 90%
    13:00 +1°C° 0.2 mm 5 m/s 750 mmHg 90%
    14:00 +2°C° 0.2 mm 5 m/s 749 mmHg 91%
    15:00 +2°C° 0.2 mm 5 m/s 749 mmHg 91%
    16:00 +2°C° 0.1 mm 5 m/s 749 mmHg 91%
    17:00 +3°C° 0.1 mm 4 m/s 750 mmHg 91%
    18:00 +3°C° 0.1 mm 4 m/s 750 mmHg 91%
    19:00 +3°C° 0 mm 4 m/s 751 mmHg 90%
    20:00 +2°C° 0 mm 5 m/s 751 mmHg 90%
    21:00 +2°C° 0 mm 5 m/s 752 mmHg 89%
    22:00 +1°C° 0 mm 5 m/s 752 mmHg 87%
    23:00 -1°C° 0 mm 6 m/s 753 mmHg 85%

    Demain, 17 Décembre, Mardi

    Heure Température Précipitation Vent Pression Humidité
    00:00 -1°C° 0 mm 6 m/s 753 mmHg 82%
    01:00 -1°C° 0 mm 6 m/s 754 mmHg 82%
    02:00 -2°C° 0 mm 6 m/s 754 mmHg 81%
    03:00 -2°C° 0 mm 6 m/s 754 mmHg 80%
    04:00 -2°C° 0 mm 6 m/s 755 mmHg 81%
    05:00 -3°C° 0 mm 6 m/s 756 mmHg 82%
    06:00 -3°C° 0 mm 6 m/s 756 mmHg 82%
    07:00 -3°C° 0 mm 6 m/s 757 mmHg 80%
    08:00 -3°C° 0 mm 6 m/s 758 mmHg 77%
    09:00 -2°C° 0 mm 6 m/s 758 mmHg 75%
    10:00 0°C° 0 mm 5 m/s 759 mmHg 70%
    11:00 +1°C° 0 mm 5 m/s 759 mmHg 65%
    12:00 +2°C° 0 mm 5 m/s 759 mmHg 60%
    13:00 +3°C° 0 mm 4 m/s 759 mmHg 60%
    14:00 +4°C° 0 mm 4 m/s 758 mmHg 60%
    15:00 +4°C° 0 mm 4 m/s 758 mmHg 59%
    16:00 +3°C° 0 mm 4 m/s 759 mmHg 65%
    17:00 +2°C° 0 mm 3 m/s 759 mmHg 70%
    18:00 +1°C° 0 mm 3 m/s 759 mmHg 76%
    19:00 0°C° 0 mm 3 m/s 759 mmHg 78%
    20:00 0°C° 0 mm 3 m/s 760 mmHg 81%
    21:00 -1°C° 0 mm 3 m/s 760 mmHg 83%
    22:00 -1°C° 0 mm 2 m/s 760 mmHg 85%
    23:00 -2°C° 0 mm 2 m/s 760 mmHg 87%

    Après-demain, 18 Décembre, Mercredi

    Heure Température Précipitation Vent Pression Humidité
    00:00 -2°C° 0 mm 2 m/s 760 mmHg 89%
    01:00 -2°C° 0 mm 2 m/s 760 mmHg 89%
    02:00 -2°C° 0 mm 2 m/s 760 mmHg 88%
    03:00 -2°C° 0 mm 2 m/s 760 mmHg 87%
    04:00 -2°C° 0 mm 2 m/s 760 mmHg 86%
    05:00 -2°C° 0 mm 2 m/s 760 mmHg 85%
    06:00 -2°C° 0 mm 2 m/s 760 mmHg 84%
    07:00 -2°C° 0 mm 2 m/s 761 mmHg 78%
    08:00 -1°C° 0 mm 3 m/s 761 mmHg 73%
    09:00 0°C° 0 mm 3 m/s 762 mmHg 68%
    10:00 +1°C° 0 mm 3 m/s 761 mmHg 62%
    11:00 +3°C° 0 mm 3 m/s 761 mmHg 56%
    12:00 +5°C° 0 mm 2 m/s 761 mmHg 50%
    13:00 +5°C° 0 mm 2 m/s 761 mmHg 50%
    14:00 +6°C° 0 mm 2 m/s 761 mmHg 49%
    15:00 +6°C° 0 mm 2 m/s 761 mmHg 48%
    16:00 +6°C° 0 mm 1 m/s 761 mmHg 54%
    17:00 +5°C° 0 mm 1 m/s 761 mmHg 59%
    18:00 +3°C° 0 mm 1 m/s 761 mmHg 65%
    19:00 +3°C° 0 mm 1 m/s 761 mmHg 67%
    20:00 +2°C° 0 mm 1 m/s 762 mmHg 69%
    21:00 +2°C° 0 mm 1 m/s 762 mmHg 72%
    22:00 -1°C° 0 mm 2 m/s 762 mmHg 74%
    23:00 -1°C° 0 mm 2 m/s 762 mmHg 76%

    19 Décembre, Jeudi

    Heure Température Précipitation Vent Pression Humidité
    00:00 -1°C° 0 mm 2 m/s 762 mmHg 79%
    01:00 -1°C° 0 mm 2 m/s 762 mmHg 79%
    02:00 -2°C° 0 mm 2 m/s 761 mmHg 79%
    03:00 -2°C° 0 mm 2 m/s 761 mmHg 80%
    04:00 -2°C° 0 mm 2 m/s 761 mmHg 80%
    05:00 -2°C° 0 mm 2 m/s 761 mmHg 80%
    06:00 -2°C° 0 mm 2 m/s 761 mmHg 80%
    07:00 -1°C° 0 mm 2 m/s 762 mmHg 76%
    08:00 0°C° 0 mm 3 m/s 762 mmHg 73%
    09:00 +1°C° 0 mm 3 m/s 762 mmHg 69%
    10:00 +3°C° 0 mm 3 m/s 762 mmHg 66%
    11:00 +5°C° 0 mm 3 m/s 762 mmHg 63%
    12:00 +7°C° 0 mm 3 m/s 761 mmHg 60%
    13:00 +7°C° 0 mm 3 m/s 761 mmHg 62%
    14:00 +8°C° 0 mm 3 m/s 761 mmHg 63%
    15:00 +8°C° 0 mm 3 m/s 760 mmHg 64%
    16:00 +7°C° 0 mm 3 m/s 761 mmHg 70%
    17:00 +5°C° 0 mm 3 m/s 761 mmHg 76%
    18:00 +3°C° 0 mm 3 m/s 761 mmHg 82%
    19:00 +3°C° 0 mm 3 m/s 761 mmHg 83%
    20:00 +3°C° 0 mm 3 m/s 761 mmHg 84%
    21:00 +2°C° 0 mm 3 m/s 761 mmHg 85%
    22:00 +2°C° 0 mm 3 m/s 761 mmHg 86%
    23:00 +3°C° 0 mm 2 m/s 761 mmHg 86%

    20 Décembre, Vendredi

    Heure Température Précipitation Vent Pression Humidité
    00:00 +2°C° 0 mm 2 m/s 761 mmHg 86%
    01:00 +2°C° 0 mm 2 m/s 761 mmHg 86%
    02:00 +2°C° 0 mm 2 m/s 761 mmHg 86%
    03:00 +2°C° 0 mm 2 m/s 761 mmHg 85%
    04:00 +2°C° 0 mm 2 m/s 761 mmHg 85%
    05:00 +2°C° 0 mm 2 m/s 761 mmHg 84%
    06:00 +2°C° 0 mm 2 m/s 761 mmHg 83%
    07:00 +3°C° 0 mm 2 m/s 761 mmHg 81%
    08:00 +3°C° 0 mm 3 m/s 761 mmHg 78%
    09:00 +3°C° 0 mm 3 m/s 761 mmHg 75%
    10:00 +5°C° 0 mm 3 m/s 761 mmHg 70%
    11:00 +8°C° 0 mm 3 m/s 761 mmHg 64%
    12:00 +9°C° 0 mm 3 m/s 761 mmHg 59%
    13:00 +9°C° 0 mm 3 m/s 760 mmHg 58%
    14:00 +10°C° 0 mm 3 m/s 760 mmHg 58%
    15:00 +10°C° 0 mm 3 m/s 759 mmHg 57%
    16:00 +9°C° 0 mm 3 m/s 760 mmHg 62%
    17:00 +8°C° 0 mm 2 m/s 760 mmHg 68%
    18:00 +7°C° 0 mm 2 m/s 760 mmHg 73%
    19:00 +6°C° 0 mm 2 m/s 760 mmHg 74%
    20:00 +6°C° 0 mm 2 m/s 760 mmHg 76%
    21:00 +6°C° 0 mm 2 m/s 760 mmHg 77%
    22:00 +6°C° 0 mm 2 m/s 760 mmHg 77%
    23:00 +6°C° 0 mm 2 m/s 761 mmHg 78%

    21 Décembre, Samedi

    Heure Température Précipitation Vent Pression Humidité
    00:00 +6°C° 0 mm 2 m/s 761 mmHg 79%
    01:00 +6°C° 0 mm 2 m/s 761 mmHg 81%
    02:00 +5°C° 0 mm 2 m/s 761 mmHg 83%
    03:00 +5°C° 0 mm 2 m/s 761 mmHg 85%
    04:00 +4°C° 0 mm 2 m/s 760 mmHg 87%
    05:00 +4°C° 0 mm 2 m/s 760 mmHg 89%
    06:00 +4°C° 0 mm 2 m/s 760 mmHg 92%
    07:00 +4°C° 0 mm 2 m/s 761 mmHg 90%
    08:00 +5°C° 0 mm 2 m/s 761 mmHg 87%
    09:00 +6°C° 0 mm 2 m/s 761 mmHg 85%
    10:00 +8°C° 0 mm 2 m/s 761 mmHg 78%
    11:00 +9°C° 0 mm 3 m/s 761 mmHg 71%
    12:00 +11°C° 0 mm 3 m/s 760 mmHg 64%
    13:00 +11°C° 0 mm 3 m/s 760 mmHg 63%
    14:00 +12°C° 0 mm 3 m/s 760 mmHg 61%
    15:00 +12°C° 0 mm 3 m/s 759 mmHg 60%
    16:00 +11°C° 0 mm 3 m/s 759 mmHg 66%
    17:00 +10°C° 0 mm 2 m/s 759 mmHg 73%
    18:00 +8°C° 0 mm 2 m/s 759 mmHg 79%
    19:00 +8°C° 0 mm 3 m/s 760 mmHg 80%
    20:00 +8°C° 0 mm 3 m/s 760 mmHg 82%
    21:00 +7°C° 0 mm 3 m/s 760 mmHg 83%
    22:00 +7°C° 0 mm 3 m/s 760 mmHg 84%
    23:00 +7°C° 0 mm 3 m/s 760 mmHg 84%
    Voir plus